Winter Haven, FL

10:13 PM EST on November 23, 2017 (GMT -0500)
Winter Haven's-Gilbert

Weather History for KGIF - May, 2013

Change the Weather History Date:

Thursday, May 23, 2013

  Actual Average Record
Temperature  
Mean Temperature 80 °F -  
Max Temperature 91 °F 89 °F 96 °F (1960)
Min Temperature 70 °F 66 °F 58 °F (1972)
Cooling Degree Days 15    
Growing Degree Days 30 (Base 50)    
Moisture  
Dew Point 69 °F    
Average Humidity 82    
Maximum Humidity 100    
Minimum Humidity 43    
Precipitation  
Precipitation 0.00 in - - ()
Sea Level Pressure  
Sea Level Pressure 29.99 in    
Wind  
Wind Speed 3 mph (NW)    
Max Wind Speed 24 mph    
Max Gust Speed 39 mph    
Visibility 7 miles    
Events Fog    
Averages and records for this station are not official NWS values.
T = Trace of Precipitation, MM = Missing Value Source: NWS Daily Summary

Daily Weather History Graph

Daily Weather History Graph

Search for Another Location

Airport or City:

Trip Planner

Search our weather history database for the weather conditions in past years. The results will help you decide how hot, cold, wet, or windy it might be!

Date:

Astronomy

May. 23, 2013 Rise Set
Actual Time 6:33 AM EDT 8:14 PM EDT
Civil Twilight 6:07 AM EDT 8:40 PM EDT
Nautical Twilight 5:36 AM EDT 9:11 PM EDT
Astronomical Twilight 5:03 AM EDT 9:44 PM EDT
Moon 6:51 PM EDT (5/23) 5:08 AM EDT (5/23)
Length of Visible Light 14h 33m
Length of Day
13h 41m
Waxing Gibbous, 97% of the Moon is Illuminated
May 23
Waxing Gibbous
May 25
Full
May 31
Last Quarter
Jun 8
New
Jun 16
First Quarter

Hourly Weather History & Observations

Time (EDT) Temp. Heat Index Dew Point Humidity Pressure Visibility Wind Dir Wind Speed Gust Speed Precip Events Conditions
12:53 AM 73.9 °F - 71.1 °F 91% 29.96 in 10.0 mi ESE 4.6 mph - N/A   Clear
1:53 AM 73.0 °F - 71.1 °F 93% 29.95 in 10.0 mi East 3.5 mph - N/A   Clear
2:53 AM 73.0 °F - 71.1 °F 93% 29.94 in 10.0 mi Calm Calm - N/A   Clear
3:41 AM 72.0 °F - 70.0 °F 93% 29.95 in 9.0 mi Calm Calm - N/A   Partly Cloudy
3:53 AM 72.0 °F - 70.0 °F 93% 29.95 in 9.0 mi Calm Calm - N/A   Partly Cloudy
4:53 AM 72.0 °F - 70.0 °F 93% 29.96 in 9.0 mi Calm Calm - N/A   Partly Cloudy
5:09 AM 72.0 °F - 70.0 °F 93% 29.97 in 7.0 mi Calm Calm - N/A   Mostly Cloudy
5:40 AM 71.1 °F - 70.0 °F 96% 29.97 in 6.0 mi NW 4.6 mph - N/A   Scattered Clouds
5:46 AM 71.1 °F - 70.0 °F 96% 29.97 in 1.2 mi NW 4.6 mph - N/A   Scattered Clouds
5:48 AM 71.6 °F - 69.8 °F 94% 29.97 in 0.8 mi NNW 3.5 mph - N/A   Mist
5:53 AM 71.1 °F - 71.1 °F 100% 29.97 in 0.2 mi Calm Calm - N/A Fog Fog
6:30 AM 70.0 °F - 70.0 °F 100% 29.99 in 1.8 mi NW 3.5 mph - N/A   Mostly Cloudy
6:32 AM 70.0 °F - 70.0 °F 100% 29.99 in 2.5 mi NW 3.5 mph - N/A   Mostly Cloudy
6:36 AM 71.1 °F - 70.0 °F 96% 29.99 in 2.0 mi WNW 3.5 mph - N/A   Scattered Clouds
6:45 AM 71.1 °F - 70.0 °F 96% 29.99 in 1.8 mi Calm Calm - N/A   Scattered Clouds
6:53 AM 71.1 °F - 70.0 °F 96% 29.99 in 1.5 mi WNW 3.5 mph - N/A   Scattered Clouds
7:01 AM 71.1 °F - 70.0 °F 96% 30.00 in 1.0 mi Calm Calm - N/A   Mostly Cloudy
7:08 AM 72.0 °F - 71.1 °F 97% 30.00 in 0.2 mi Calm Calm - N/A Fog Fog
7:50 AM 71.6 °F - 71.6 °F 100% 30.01 in 1.5 mi Calm Calm - N/A   Overcast
7:53 AM 72.0 °F - 71.1 °F 97% 30.01 in 1.5 mi Calm Calm - N/A   Overcast
8:03 AM 72.0 °F - 72.0 °F 100% 30.02 in 2.0 mi Calm Calm - N/A   Mostly Cloudy
8:10 AM 73.0 °F - 72.0 °F 96% 30.02 in 3.0 mi Calm Calm - N/A   Mostly Cloudy
8:19 AM 73.0 °F - 72.0 °F 96% 30.02 in 5.0 mi WNW 3.5 mph - N/A   Scattered Clouds
8:53 AM 75.9 °F - 71.1 °F 85% 30.03 in 10.0 mi Calm Calm - N/A   Clear
9:53 AM 80.1 °F 83.2 °F 70.0 °F 71% 30.02 in 10.0 mi NNW 5.8 mph - N/A   Clear
10:53 AM 82.0 °F 85.5 °F 69.1 °F 65% 30.02 in 10.0 mi North 4.6 mph - N/A   Clear
11:53 AM 84.9 °F 88.2 °F 68.0 °F 57% 30.03 in 10.0 mi NNW 6.9 mph - N/A   Scattered Clouds
12:53 PM 86.0 °F 88.8 °F 66.9 °F 53% 30.02 in 10.0 mi Variable 4.6 mph - N/A   Clear
1:53 PM 89.1 °F 92.1 °F 66.9 °F 48% 30.01 in 10.0 mi North 5.8 mph - N/A   Clear
2:53 PM 90.0 °F 91.7 °F 64.9 °F 43% 29.99 in 10.0 mi Variable 3.5 mph - N/A   Scattered Clouds
3:53 PM 88.0 °F 89.6 °F 64.9 °F 46% 29.97 in 10.0 mi South 4.6 mph - N/A   Mostly Cloudy
4:53 PM 79.0 °F - 60.1 °F 52% 29.96 in 10.0 mi NE 24.2 mph 39.1 mph N/A   Overcast
5:53 PM 84.0 °F 84.9 °F 63.0 °F 49% 29.96 in 10.0 mi WSW 4.6 mph - N/A   Mostly Cloudy
6:53 PM 84.9 °F 87.1 °F 66.0 °F 53% 29.95 in 10.0 mi Calm Calm - N/A   Partly Cloudy
7:53 PM 84.0 °F 87.0 °F 68.0 °F 58% 29.98 in 10.0 mi WSW 3.5 mph - N/A   Partly Cloudy
8:53 PM 81.0 °F 83.3 °F 66.9 °F 62% 29.99 in 10.0 mi NW 6.9 mph - N/A   Clear
9:53 PM 78.1 °F - 69.1 °F 74% 30.01 in 10.0 mi NW 8.1 mph - N/A   Clear
10:53 PM 75.9 °F - 69.1 °F 79% 30.02 in 10.0 mi NW 4.6 mph - N/A   Clear
11:53 PM 75.0 °F - 69.1 °F 82% 30.02 in 10.0 mi WNW 3.5 mph - N/A   Clear